Terug naar catalogus

BLOCK DM-SL R/B

ActiefGTO
NORAD 37817·ROCKET BODY· XX

Gelanceerd Sep 24, 2011 vanaf Sea Launch Platform

Loading…

TLE

VersSource: Space-Track

Epoch: Sep 14, 2026, 22:22 UTC

1 37817U 11051B   26257.93222745 -.00000166  00000-0  00000-0 0  9994
2 37817   0.8579   0.2565 6808052 144.5327 209.8915  2.20341825120532

Volg BLOCK DM-SL R/B in realtime met AllMySat

Download on the App Store